SUR4140 SAEZ-SAWC

Flight info

Callsign SUR4140
Flight time N/A
Altitude 36000
Route GBE UT694 IREMO UP664 CRV UW48 BOKUK
Aircraft B738/M-V/N

Departure

Time N/A
Airport Ezeiza International Airport - Ministro Pistarini (SAEZ)

Arrival

Time 2026-04-28 14:05
Airport El Calafate - Commander Armando Tola International Airport (SAWC)
Time Latitude Longitude Altitude Speed Heading
2026-04-28 13:16 -46.43100 -67.99719 35999 ft 451 kts 214°
2026-04-28 13:17 -46.45721 -68.02250 36000 ft 451 kts 214°
2026-04-28 13:17 -46.50947 -68.07306 36002 ft 451 kts 214°
2026-04-28 13:18 -46.56169 -68.12371 36000 ft 452 kts 214°
2026-04-28 13:18 -46.61396 -68.17452 36000 ft 452 kts 214°
2026-04-28 13:19 -46.66619 -68.22541 36001 ft 452 kts 214°
2026-04-28 13:19 -46.71844 -68.27645 36001 ft 452 kts 214°
2026-04-28 13:20 -46.77066 -68.32757 36002 ft 452 kts 214°
2026-04-28 13:20 -46.82284 -68.37877 36002 ft 452 kts 214°
2026-04-28 13:21 -46.87493 -68.43001 36003 ft 452 kts 214°
2026-04-28 13:21 -46.92705 -68.48140 36001 ft 451 kts 214°
2026-04-28 13:22 -46.97906 -68.53281 36002 ft 451 kts 214°
2026-04-28 13:22 -47.03071 -68.58398 36000 ft 451 kts 214°
2026-04-28 13:23 -47.08299 -68.63590 35997 ft 451 kts 214°
2026-04-28 13:23 -47.13469 -68.68736 35996 ft 452 kts 214°
2026-04-28 13:24 -47.18666 -68.73923 36005 ft 452 kts 214°
2026-04-28 13:24 -47.23866 -68.79124 35998 ft 452 kts 214°
2026-04-28 13:25 -47.29070 -68.84342 36003 ft 453 kts 214°
2026-04-28 13:25 -47.34289 -68.89587 36006 ft 454 kts 214°
2026-04-28 13:26 -47.39516 -68.94854 36005 ft 455 kts 214°
2026-04-28 13:26 -47.44745 -69.00136 36004 ft 456 kts 214°
2026-04-28 13:27 -47.49988 -69.05445 36002 ft 457 kts 214°
2026-04-28 13:27 -47.55232 -69.10768 36002 ft 457 kts 214°
2026-04-28 13:28 -47.60480 -69.16108 35997 ft 457 kts 214°
2026-04-28 13:28 -47.65719 -69.21452 36003 ft 457 kts 214°
2026-04-28 13:29 -47.70900 -69.26750 36004 ft 456 kts 215°
2026-04-28 13:29 -47.76119 -69.32100 36003 ft 456 kts 215°
2026-04-28 13:30 -47.81333 -69.37459 36000 ft 455 kts 215°
2026-04-28 13:30 -47.86531 -69.42814 36004 ft 454 kts 215°
2026-04-28 13:31 -47.94317 -69.50860 36002 ft 454 kts 215°
2026-04-28 13:31 -47.99506 -69.56241 36004 ft 454 kts 215°
2026-04-28 13:32 -48.04678 -69.61616 36003 ft 454 kts 215°
2026-04-28 13:32 -48.09857 -69.67011 36002 ft 454 kts 215°
2026-04-28 13:33 -48.15042 -69.72427 36002 ft 454 kts 215°
2026-04-28 13:33 -48.17628 -69.75133 35891 ft 456 kts 215°
2026-04-28 13:33 -48.20248 -69.77878 35345 ft 459 kts 215°
2026-04-28 13:34 -48.22857 -69.80615 34718 ft 456 kts 215°
2026-04-28 13:34 -48.25410 -69.83298 34204 ft 453 kts 215°
2026-04-28 13:34 -48.27976 -69.85996 33781 ft 447 kts 215°
2026-04-28 13:34 -48.30534 -69.88691 33342 ft 442 kts 215°
2026-04-28 13:35 -48.33035 -69.91327 32919 ft 437 kts 215°
2026-04-28 13:35 -48.35507 -69.93937 32496 ft 432 kts 215°
2026-04-28 13:35 -48.37921 -69.96489 32071 ft 427 kts 215°
2026-04-28 13:35 -48.40343 -69.99052 31643 ft 423 kts 215°
2026-04-28 13:36 -48.42763 -70.01616 31234 ft 419 kts 215°
2026-04-28 13:36 -48.45105 -70.04098 30829 ft 415 kts 215°
2026-04-28 13:36 -48.47462 -70.06580 30420 ft 411 kts 215°
2026-04-28 13:36 -48.49794 -70.09023 30018 ft 407 kts 215°
2026-04-28 13:37 -48.52111 -70.11447 29609 ft 403 kts 215°
2026-04-28 13:37 -48.54413 -70.13859 29200 ft 399 kts 215°
2026-04-28 13:37 -48.56687 -70.16247 28783 ft 396 kts 215°
2026-04-28 13:37 -48.58934 -70.18611 28387 ft 392 kts 215°
2026-04-28 13:38 -48.61147 -70.20943 27984 ft 389 kts 215°
2026-04-28 13:38 -48.63348 -70.23265 27584 ft 385 kts 215°
2026-04-28 13:38 -48.65530 -70.25570 27189 ft 382 kts 215°
2026-04-28 13:38 -48.67699 -70.27865 26803 ft 378 kts 215°
2026-04-28 13:39 -48.69850 -70.30143 26392 ft 376 kts 215°
2026-04-28 13:39 -48.71983 -70.32403 26019 ft 374 kts 215°
2026-04-28 13:39 -48.74110 -70.34659 25621 ft 373 kts 215°
2026-04-28 13:39 -48.76250 -70.36932 25251 ft 381 kts 215°
2026-04-28 13:40 -48.78446 -70.39267 24849 ft 386 kts 215°
2026-04-28 13:40 -48.80631 -70.41592 24443 ft 383 kts 215°
2026-04-28 13:40 -48.82803 -70.43904 24036 ft 379 kts 215°
2026-04-28 13:40 -48.84947 -70.46191 23641 ft 375 kts 215°
2026-04-28 13:41 -48.87070 -70.48456 23250 ft 371 kts 215°
2026-04-28 13:41 -48.89170 -70.50700 22865 ft 367 kts 215°
2026-04-28 13:41 -48.91245 -70.52919 22483 ft 363 kts 215°
2026-04-28 13:41 -48.93305 -70.55125 22102 ft 360 kts 215°
2026-04-28 13:42 -48.95342 -70.57308 21728 ft 357 kts 215°
2026-04-28 13:42 -48.97336 -70.59448 21362 ft 354 kts 215°
2026-04-28 13:42 -48.99362 -70.61624 20986 ft 351 kts 215°
2026-04-28 13:42 -49.01320 -70.63730 20620 ft 348 kts 216°
2026-04-28 13:43 -49.03283 -70.65842 20259 ft 345 kts 216°
2026-04-28 13:43 -49.05236 -70.67946 19894 ft 342 kts 216°
2026-04-28 13:43 -49.07171 -70.70034 19536 ft 339 kts 216°
2026-04-28 13:43 -49.09086 -70.72101 19179 ft 336 kts 216°
2026-04-28 13:44 -49.10989 -70.74157 18832 ft 334 kts 216°
2026-04-28 13:44 -49.12879 -70.76201 18473 ft 331 kts 216°
2026-04-28 13:44 -49.14753 -70.78229 18124 ft 331 kts 216°
2026-04-28 13:44 -49.16636 -70.80269 17779 ft 332 kts 216°
2026-04-28 13:45 -49.18528 -70.82321 17426 ft 337 kts 216°
2026-04-28 13:45 -49.20456 -70.84415 17066 ft 342 kts 216°
2026-04-28 13:45 -49.22391 -70.86517 16694 ft 341 kts 216°
2026-04-28 13:45 -49.24319 -70.88615 16323 ft 337 kts 216°
2026-04-28 13:46 -49.26221 -70.90686 15961 ft 333 kts 216°
2026-04-28 13:46 -49.28102 -70.92732 15606 ft 330 kts 216°
2026-04-28 13:46 -49.29968 -70.94753 15253 ft 327 kts 216°
2026-04-28 13:46 -49.31814 -70.96747 14905 ft 324 kts 215°
2026-04-28 13:47 -49.33647 -70.98727 14561 ft 321 kts 215°
2026-04-28 13:47 -49.35464 -71.00690 14218 ft 318 kts 215°
2026-04-28 13:47 -49.37263 -71.02635 13879 ft 315 kts 215°
2026-04-28 13:47 -49.39044 -71.04564 13542 ft 312 kts 216°
2026-04-28 13:48 -49.40811 -71.06478 13208 ft 310 kts 216°
2026-04-28 13:48 -49.42563 -71.08379 12875 ft 307 kts 216°
2026-04-28 13:48 -49.44300 -71.10266 12548 ft 305 kts 216°
2026-04-28 13:48 -49.46025 -71.12142 12217 ft 302 kts 216°
2026-04-28 13:49 -49.47733 -71.14002 11891 ft 300 kts 216°
2026-04-28 13:49 -49.49431 -71.15853 11567 ft 298 kts 216°
2026-04-28 13:49 -49.51116 -71.17693 11242 ft 296 kts 216°
2026-04-28 13:49 -49.52804 -71.19537 10925 ft 299 kts 216°
2026-04-28 13:50 -49.54510 -71.21404 10604 ft 303 kts 216°
2026-04-28 13:50 -49.56237 -71.23297 10414 ft 304 kts 216°
2026-04-28 13:50 -49.57946 -71.25172 10264 ft 297 kts 216°
2026-04-28 13:50 -49.59603 -71.26992 10127 ft 288 kts 216°
2026-04-28 13:51 -49.61210 -71.28757 10000 ft 279 kts 216°
2026-04-28 13:51 -49.62774 -71.30478 9821 ft 274 kts 216°
2026-04-28 13:51 -49.64319 -71.32180 9650 ft 272 kts 216°
2026-04-28 13:51 -49.65863 -71.33881 9481 ft 273 kts 216°
2026-04-28 13:52 -49.67411 -71.35590 9308 ft 275 kts 216°
2026-04-28 13:52 -49.68970 -71.37313 9130 ft 276 kts 216°
2026-04-28 13:52 -49.70531 -71.39040 8943 ft 275 kts 216°
2026-04-28 13:52 -49.72083 -71.40760 8762 ft 275 kts 216°
2026-04-28 13:53 -49.73635 -71.42481 8568 ft 274 kts 216°
2026-04-28 13:53 -49.75160 -71.44174 8405 ft 273 kts 216°
2026-04-28 13:53 -49.76700 -71.45885 8227 ft 273 kts 216°
2026-04-28 13:53 -49.78237 -71.47595 8039 ft 272 kts 216°
2026-04-28 13:54 -49.79770 -71.49303 7870 ft 271 kts 216°
2026-04-28 13:54 -49.81298 -71.51007 7692 ft 270 kts 216°
2026-04-28 13:54 -49.82820 -71.52706 7516 ft 269 kts 216°
2026-04-28 13:54 -49.84357 -71.54423 7342 ft 268 kts 216°
2026-04-28 13:55 -49.85867 -71.56112 7166 ft 268 kts 216°
2026-04-28 13:55 -49.87356 -71.57777 6988 ft 267 kts 215°
2026-04-28 13:55 -49.88960 -71.59212 6812 ft 266 kts 206°
2026-04-28 13:55 -49.90654 -71.60367 6632 ft 266 kts 203°
2026-04-28 13:56 -49.92361 -71.61465 6456 ft 265 kts 203°
2026-04-28 13:56 -49.94064 -71.62569 6282 ft 265 kts 203°
2026-04-28 13:56 -49.95755 -71.63691 6103 ft 264 kts 204°
2026-04-28 13:56 -49.97439 -71.64829 5931 ft 264 kts 204°
2026-04-28 13:57 -49.99115 -71.65976 5761 ft 263 kts 204°
2026-04-28 13:57 -50.00784 -71.67130 5586 ft 262 kts 204°
2026-04-28 13:57 -50.02440 -71.68282 5404 ft 261 kts 204°
2026-04-28 13:57 -50.04096 -71.69439 5242 ft 261 kts 205°
2026-04-28 13:58 -50.05750 -71.70599 5072 ft 261 kts 205°
2026-04-28 13:58 -50.07402 -71.71760 4903 ft 260 kts 205°
2026-04-28 13:58 -50.08234 -71.72345 4820 ft 259 kts 205°
2026-04-28 13:58 -50.09873 -71.73500 4631 ft 257 kts 205°
2026-04-28 13:59 -50.11499 -71.74646 4471 ft 256 kts 205°
2026-04-28 13:59 -50.13113 -71.75786 4302 ft 255 kts 205°
2026-04-28 13:59 -50.14720 -71.76922 4133 ft 251 kts 205°
2026-04-28 13:59 -50.16296 -71.78036 3959 ft 246 kts 205°
2026-04-28 14:00 -50.17835 -71.79126 3805 ft 240 kts 205°
2026-04-28 14:00 -50.19318 -71.80175 3671 ft 228 kts 205°
2026-04-28 14:00 -50.20728 -71.81174 3504 ft 217 kts 205°
2026-04-28 14:00 -50.22063 -71.82120 3370 ft 205 kts 205°
2026-04-28 14:01 -50.23324 -71.83015 3239 ft 193 kts 205°
2026-04-28 14:01 -50.24519 -71.83863 3102 ft 187 kts 205°
2026-04-28 14:01 -50.25704 -71.84705 2988 ft 186 kts 205°
2026-04-28 14:01 -50.26698 -71.85895 2783 ft 181 kts 240°
2026-04-28 14:02 -50.26975 -71.87750 2642 ft 174 kts 266°
2026-04-28 14:02 -50.27057 -71.89605 2424 ft 166 kts 265°
2026-04-28 14:02 -50.27167 -71.91367 2182 ft 160 kts 264°
2026-04-28 14:02 -50.27278 -71.93076 1966 ft 158 kts 264°
2026-04-28 14:03 -50.27385 -71.94757 1768 ft 158 kts 264°
2026-04-28 14:03 -50.27493 -71.96503 1556 ft 159 kts 264°
2026-04-28 14:03 -50.27596 -71.98191 1323 ft 152 kts 264°
2026-04-28 14:03 -50.27693 -71.99805 1042 ft 145 kts 265°
2026-04-28 14:04 -50.27786 -72.01340 806 ft 139 kts 265°
2026-04-28 14:04 -50.27875 -72.02828 713 ft 137 kts 265°
2026-04-28 14:04 -50.27967 -72.04345 656 ft 141 kts 264°
2026-04-28 14:04 -50.28056 -72.05719 640 ft 101 kts 264°
2026-04-28 14:05 -50.28090 -72.06439 642 ft 35 kts 265°
2026-04-28 14:05 -50.28108 -72.06754 642 ft 23 kts 264°
2026-04-28 14:05 -50.28156 -72.06952 643 ft 12 kts 237°
2026-04-28 14:05 -50.28151 -72.07033 642 ft 7 kts 317°
2026-04-28 14:06 -50.28128 -72.07035 641 ft 3 kts 40°
2026-04-28 14:06 -50.28124 -72.07006 641 ft 4 kts 80°
2026-04-28 14:06 -50.28117 -72.06923 642 ft 12 kts 83°
2026-04-28 14:06 -50.28104 -72.06757 642 ft 19 kts 84°
2026-04-28 14:07 -50.28090 -72.06540 642 ft 20 kts 84°
2026-04-28 14:07 -50.28076 -72.06332 645 ft 19 kts 84°
2026-04-28 14:07 -50.28064 -72.06128 643 ft 19 kts 84°
2026-04-28 14:07 -50.28053 -72.05930 641 ft 18 kts 86°
2026-04-28 14:08 -50.28044 -72.05739 642 ft 17 kts 86°
2026-04-28 14:08 -50.28036 -72.05550 643 ft 17 kts 86°
2026-04-28 14:08 -50.28095 -72.05418 641 ft 17 kts 166°
2026-04-28 14:08 -50.28207 -72.05395 640 ft 16 kts 172°
2026-04-28 14:09 -50.28275 -72.05287 640 ft 11 kts 162°
2026-04-28 14:09 -50.28310 -72.05295 640 ft 2 kts 211°
2026-04-28 14:09 -50.28318 -72.05307 640 ft 2 kts 225°
2026-04-28 14:09 -50.28323 -72.05317 640 ft 0 kts 231°